Simultaneous Nadir Overpasses (SNOs) Predictions

Prediction of SNOs between NOAA-19 and METOP-C Satellite Orbit:

Table of predicted SNOs for the next 14.0 days since TLE Epoch: 1/9/2021
Index Date (NOAA-19) Time (NOAA-19) Lat,Lon (NOAA-19) SZA (NOAA-19 ) Date (METOP-C) Time (METOP-C) Lat,Lon (METOP-C) SZA (METOP-C ) Distance(km) Time Diff (sec)
1 01/12/2021 19:06:33 80.34, -80.53 102.58 01/12/2021 19:07:34 80.34, -80.39 102.61 2.55 61
2 01/12/2021 19:57:27 -80.33, 86.89 77.43 01/12/2021 19:58:14 -80.34, 86.92 77.40 1.17 47
3 01/12/2021 20:48:32 80.33,-105.88 102.57 01/12/2021 20:48:55 80.33,-105.86 102.58 0.33 23
4 01/12/2021 21:39:27 -80.32, 61.54 77.44 01/12/2021 21:39:36 -80.33, 61.45 77.43 1.81 9
5 01/12/2021 22:30:32 80.32,-131.22 102.56 01/12/2021 22:30:17 80.32,-131.33 102.55 1.91 15
6 01/12/2021 23:21:28 -80.33, 35.85 77.45 01/12/2021 23:20:58 -80.32, 35.99 77.46 2.91 30
7 01/13/2021 00:12:32 80.31,-156.57 102.55 01/13/2021 00:11:38 80.33,-156.47 102.57 3.21 54



Historial Predications of SNOs between NOAA-19 and METOP-C
